Okean 2 Rocket - Orbit

View from above orbital plane
View from above orbital plane
View from above satellite
View from above satellite

Ground track
Ground track

The orbit data is extracted from the following two-line orbital elements,

1 20511U 90018B   13139.44726220  .00000380  00000-0  48117-4 0  6332
2 20511 082.5243 260.7456 0016383 318.2598 084.7096 14.79127608251773
Epoch (UTC): 19 May 2013 10:44:03
Eccentricity: 0.0016383
inclination: 82.5243°
perigee height: 620 km
apogee height: 643 km
right ascension of ascending node: 260.7456°
argument of perigee: 318.2598°
revolutions per day: 14.79127608
mean anomaly at epoch: 84.7096°
orbit number at epoch: 25177

The dashed part of the orbit path shows where the satellite is in the earth's shadow,  

Developed and maintained by Chris Peat, Heavens-Above GmbH. Please read the updated FAQ before sending e-mail. Imprint. DLR